GFSNIL_prec_cloud_198.txt.gz
Cloud_Cover
59 5 4 5 0 5 25 99 100 58 15 78 64 3 49 0 0 0 0 0 0 0
12 5 5 0 0 4 5 6 9 5 7 12 100 100 8 5 4 0 0 0 0 1
9 5 1 0 0 0 0 0 0 0 5 5 47 100 96 36 5 1 11 84 70 41
71 5 0 0 0 0 0 0 0 1 1 5 8 100 100 98 100 6 56 24 52 91
31 48 0 2 0 0 0 0 0 0 4 5 5 27 69 91 17 14 83 14 22 62
29 21 5 5 5 5 0 0 0 0 0 4 5 5 26 5 5 35 50 5 6 14
71 28 48 5 3 5 5 4 3 4 2 5 54 53 5 32 68 5 64 7 6 52
87 99 92 33 5 5 87 10 5 4 3 4 5 14 5 5 55 26 100 25 39 9
45 100 93 99 62 5 5 5 5 1 5 5 5 5 5 83 100 100 14 39 23 70
53 85 9 23 92 100 72 70 82 5 5 5 4 4 36 100 100 100 100 94 98 32
4 33 88 14 16 44 87 86 51 83 64 5 4 30 70 100 100 100 100 100 100 97
98 29 98 33 5 10 100 100 100 68 74 41 5 100 98 100 100 100 100 100 100 99
10 52 98 14 25 62 100 100 95 100 100 71 99 100 100 100 100 100 100 100 100 100
0 84 100 83 44 5 10 10 96 80 100 100 100 100 100 100 100 100 100 100 100 100

GFSNIL_prec_cloud_201.txt.gz
Cloud_Cover
61 60 96 14 43 5 6 43 42 61 24 100 6 100 25 4 1 3 0 0 0 3
100 95 100 85 90 4 5 5 5 17 100 34 90 20 6 5 2 0 0 0 0 0
100 100 100 17 24 39 2 4 5 20 5 8 14 100 100 11 0 0 0 0 0 34
92 100 62 5 4 5 4 0 4 3 4 5 23 39 28 99 51 70 1 78 70 55
100 100 99 100 72 5 5 1 0 0 0 0 3 5 5 32 95 96 99 100 100 78
78 70 52 94 12 5 4 0 0 0 5 0 0 5 5 5 45 84 72 68 57 8
100 75 50 10 66 35 5 5 0 2 5 4 0 0 5 5 5 7 12 90 100 36
100 100 44 12 5 5 5 5 5 2 0 0 0 1 5 5 42 44 41 92 98 99
5 5 5 49 94 68 10 5 5 5 5 0 0 0 4 9 33 86 98 100 72 100
9 38 38 12 35 57 29 70 5 5 5 5 0 0 0 5 53 100 100 100 100 100
8 11 52 35 24 51 26 15 35 29 5 5 5 5 3 1 98 33 100 100 100 100
2 100 100 100 100 98 100 69 5 9 5 5 5 80 22 10 9 41 92 100 100 100
48 100 100 100 100 99 100 69 61 7 1 5 5 98 98 71 59 53 100 100 100 100
31 100 100 94 99 100 100 72 24 21 4 24 15 26 100 100 83 30 89 100 100 100

GFSNIL_prec_cloud_207.txt.gz
Cloud_Cover
50 18 10 100 100 94 19 23 33 93 11 32 5 33 8 94 100 100 100 100 98 13
100 29 42 81 100 100 100 39 13 92 6 10 8 8 5 5 5 96 78 7 11 0
100 100 32 5 97 100 100 100 100 5 16 7 46 79 5 21 5 5 5 4 4 0
100 100 100 46 5 98 68 100 11 30 5 57 14 5 34 79 90 12 5 5 14 6
84 100 100 55 23 9 16 100 100 42 14 5 5 5 5 17 72 100 2 1 2 0
3 39 100 100 100 99 89 100 100 100 8 5 2 4 4 5 5 41 90 79 14 4
0 5 95 91 100 100 100 100 100 100 85 8 6 1 0 83 100 100 73 22 95 21
0 0 5 5 35 100 100 100 100 100 76 5 5 0 2 55 98 100 68 96 49 32
0 0 0 5 73 78 100 100 100 100 97 6 4 9 100 86 21 56 100 100 34 5
17 0 0 1 46 100 88 100 100 100 100 88 3 3 22 2 0 4 54 100 100 98
34 1 0 23 0 100 100 34 69 99 67 90 80 6 5 5 0 0 5 61 100 100
100 77 25 40 7 16 100 100 21 15 39 5 5 8 7 5 0 0 0 0 0 10
100 96 33 26 38 2 6 100 29 5 5 5 5 5 5 5 5 5 5 0 0 4
100 81 62 60 13 23 12 36 100 45 14 3 5 5 5 5 5 4 1 0 4 5

GFSNIL_prec_cloud_210.txt.gz
Cloud_Cover
98 5 7 64 91 100 100 30 90 5 5 5 5 12 100 95 72 5 0 5 7 0
100 97 5 82 5 100 100 100 1 4 5 23 5 5 16 51 84 67 94 100 76 84
91 100 85 5 5 94 100 64 86 1 5 54 6 5 5 5 5 39 6 70 96 74
4 69 100 97 11 10 100 98 91 100 92 28 20 5 5 5 17 100 10 5 5 1
0 2 38 100 100 5 11 96 15 1 20 4 6 5 5 5 15 99 39 5 3 0
0 0 2 72 44 73 26 4 6 5 9 23 2 5 5 5 5 63 100 100 22 1
0 0 0 1 66 25 77 44 5 7 18 55 5 0 0 3 54 100 100 100 100 100
6 0 0 0 0 36 38 71 94 5 74 100 34 2 0 0 5 99 100 97 47 93
100 88 31 0 0 0 4 5 19 53 10 73 40 5 0 0 5 71 100 100 100 100
100 47 55 90 3 4 0 0 4 5 5 57 100 84 5 0 3 60 98 6 100 100
49 18 92 69 81 2 0 0 0 0 5 5 36 100 79 19 3 0 7 5 6 90
64 70 90 100 100 100 65 0 0 0 0 7 9 8 6 5 4 5 2 0 0 5
44 6 100 100 100 100 100 88 1 0 0 0 5 53 13 5 5 0 5 5 2 0
4 30 100 100 100 100 100 100 68 48 0 2 2 4 5 1 3 2 5 5 5 0